Regional Weather Roundup
Issued by NWS

Home | Current Version | Previous Version | Graphics & Text | Print | Product List | Glossary Off
Versions: 1 2 3 4 5 6 7 8 9 10 11 12 13 14 15 16 17 18 19 20 21 22 23 24 25 26 27 28 29 30 31 32 33 34 35 36 37 38 39 40 41 42 43 44 45 46 47 48 49 50

000
ASUS43 KTOP 100608
RWRKS

WEATHER ROUNDUP FOR KANSAS
NATIONAL WEATHER SERVICE GOODLAND KS
1200 AM CST WED FEB 10 2016

NOTE:  "FAIR" INDICATES FEW OR NO CLOUDS BELOW 12,000 FEET WITH NO
SIGNIFICANT WEATHER AND/OR OBSTRUCTIONS TO VISIBILITY.

KSZ001>006-013>018-027>032-041>047-100700-
NORTHWEST KANSAS

CITY           SKY/WX    TMP DP  RH WIND       PRES   REMARKS
GOODLAND       CLEAR     37  26  64 W14       30.18F WCI  28
6HR MIN TEMP:  35; 6HR MAX TEMP:  42;

HAYS           CLOUDY    30  16  55 SW12      30.20F WCI  21
HILL CITY      CLEAR     32  22  66 SW13      30.17F WCI  22
6HR MIN TEMP:  30; 6HR MAX TEMP:  35;

RUSSELL        CLOUDY    30  22  72 S12       30.19F WCI  20
6HR MIN TEMP:  27; 6HR MAX TEMP:  32;

$$

KSZ061>065-074>080-084>089-100700-
SOUTHWEST KANSAS

CITY           SKY/WX    TMP DP  RH WIND       PRES   REMARKS
DODGE CITY     CLEAR     33  20  58 SW13      30.24F WCI  24
6HR MIN TEMP:  25; 6HR MAX TEMP:  43;

ELKHART          N/A     39  24  55 W9          N/A
GARDEN CITY    CLEAR     31  25  78 W9        30.21F
6HR MIN TEMP:  29; 6HR MAX TEMP:  46;

GREAT BEND     CLOUDY    30  18  59 S8        30.24S
LIBERAL        CLEAR     30  19  64 W12       30.27F WCI  21
PRATT          CLOUDY    25  19  77 S5        30.25S
6HR MIN TEMP:  19; 6HR MAX TEMP:  36;

$$

KSZ066>073-081>083-090>101-100700-
SOUTHEAST KANSAS

CITY           SKY/WX    TMP DP  RH WIND       PRES   REMARKS
CHANUTE        CLEAR     21   9  59 W5        30.30F
6HR MIN TEMP:  20; 6HR MAX TEMP:  31;

COFFEYVILLE    PTCLDY    24   9  52 CALM      30.32F
6HR MIN TEMP:  23; 6HR MAX TEMP:  35;

HUTCHINSON     MOCLDY    27  17  66 S5        30.26F
6HR MIN TEMP:  24; 6HR MAX TEMP:  35;

MEDICINE LODGE   N/A     29  20  69 CALM      30.28S
NEWTON         CLEAR     21   9  58 SE6       30.25F
PARSONS        CLEAR     19  11  70 CALM      30.31F
6HR MIN TEMP:  19; 6HR MAX TEMP:  33;

WICHITA INTL   PTCLDY    27  11  51 CALM      30.27F
6HR MIN TEMP:  27; 6HR MAX TEMP:  36;

WICHITA JABRA  CLEAR     25  13  60 CALM      30.26F
6HR MIN TEMP:  22; 6HR MAX TEMP:  32;

WICHITA MCCONL CLEAR     25  12  58 CALM      30.28S
WINFIELD       CLEAR     26  12  55 NE6       30.29F
6HR MIN TEMP:  26; 6HR MAX TEMP:  37;

$$

KSZ007>012-019>026-033>040-048>060-102>105-100700-
NORTHEAST KANSAS

CITY           SKY/WX    TMP DP  RH WIND       PRES   REMARKS
CONCORDIA      CLOUDY    23  15  71 S10       30.20F WCI  12
6HR MIN TEMP:  21; 6HR MAX TEMP:  26;

EMPORIA        CLEAR     18  10  71 W5        30.27F
6HR MIN TEMP:  17; 6HR MAX TEMP:  27;

LAWRENCE       MOCLDY    17  12  80 CALM      30.28S
6HR MIN TEMP:  16; 6HR MAX TEMP:  26;

MANHATTAN      CLEAR     18  12  77 SW5       30.26F
6HR MIN TEMP:  17; 6HR MAX TEMP:  28;

MARYSVILLE     PTCLDY    21  14  73 S3        30.22F
OLATHE IND     CLEAR     19   9  65 SW6       30.26F
6HR MIN TEMP:  19; 6HR MAX TEMP:  25;

OLATHE EXE     CLEAR     19   8  62 W3        30.25S
6HR MIN TEMP:  19; 6HR MAX TEMP:  25;

SALINA         PTCLDY    22  14  71 S6        30.25F
6HR MIN TEMP:  21; 6HR MAX TEMP:  31;

TOPEKA BILLARD CLOUDY    24  12  60 W3        30.27F
6HR MIN TEMP:  23; 6HR MAX TEMP:  27;

TOPEKA FORBES  PTCLDY    20  11  68 W5        30.25F
6HR MIN TEMP:  19; 6HR MAX TEMP:  28;

$$



USA.gov is the U.S. government's official web portal to all federal, state and local government web resources and services.